Lapse_Rate
4.4 6.5 6.5 6.5 6.5 6.5 6.5 6.5 6.5 6.5 6.5 6.5 6.5 6.5 6.5 6.1 5.0 4.8 3.4 3.0 3.5 4.1 5.5 5.4 5.5 5.1 4.5 3.3 2.5 2.4 2.8 3.1 3.8 3.9 3.4 3.4 2.9 2.4 1.3 2.1 2.5 1.8 2.1 2.1
6.5 6.5 6.5 6.4 6.5 6.5 6.5 6.5 6.5 6.5 6.5 6.5 6.5 6.5 6.5 6.2 6.2 5.7 4.2 2.9 3.5 5.4 5.1 5.0 4.7 4.2 3.0 2.3 2.1 2.9 3.5 3.8 4.5 5.1 4.5 3.8 4.0 3.3 2.5 2.4 2.3 2.3 2.5 2.0
6.5 6.5 6.2 6.5 6.5 6.5 6.5 6.5 6.5 6.5 6.5 6.5 6.5 6.5 6.5 6.5 5.6 5.5 4.8 4.4 4.7 5.1 4.7 4.2 3.9 3.2 2.4 2.3 2.6 4.3 4.7 5.0 4.9 5.2 5.4 4.3 3.6 3.6 2.7 2.4 1.9 2.5 2.2 2.4
6.5 6.4 6.5 6.5 6.5 6.5 6.5 6.5 6.5 6.5 6.5 6.5 6.5 6.5 6.5 6.5 6.5 6.4 5.4 4.2 4.0 4.4 4.1 3.6 3.5 3.0 3.1 3.9 3.8 4.2 4.8 5.3 5.8 6.0 5.7 5.3 4.9 4.6 4.1 3.7 2.4 2.0 3.1 2.4
6.5 6.5 6.5 6.5 6.5 6.5 6.5 6.5 6.5 6.5 6.5 6.5 6.5 6.5 6.5 6.5 6.5 6.5 5.3 3.4 3.5 3.7 3.3 3.2 3.2 4.9 5.2 5.4 5.2 5.7 5.3 4.9 5.1 5.5 5.9 5.8 5.8 5.7 5.0 4.6 3.0 1.9 2.2 3.4
6.5 6.4 6.5 6.5 6.5 6.5 6.4 6.5 6.5 6.5 6.5 6.5 6.5 6.5 6.5 6.5 6.5 6.5 5.8 3.5 4.0 3.5 2.8 2.8 4.4 5.8 6.7 6.9 6.4 5.8 6.4 7.0 6.0 6.1 5.9 6.3 6.1 6.3 6.1 5.1 4.4 2.8 2.1 2.9
6.5 6.5 6.5 6.2 6.5 6.5 6.5 6.5 6.5 6.5 6.5 6.5 6.5 6.5 6.5 6.5 6.5 6.4 6.0 4.2 3.4 2.6 2.7 3.8 6.3 7.0 7.1 7.0 7.5 8.0 8.0 7.9 8.0 7.6 6.9 6.7 6.8 6.5 6.5 5.9 5.3 4.7 3.0 2.8
6.5 6.5 6.5 6.4 6.5 6.5 6.5 6.5 6.5 6.5 6.5 6.5 6.5 6.5 6.5 6.5 5.1 4.1 4.9 3.7 3.2 2.9 3.6 6.3 7.1 7.3 7.4 7.7 8.1 8.2 8.3 8.3 8.4 8.2 7.9 7.7 7.5 7.6 7.2 7.0 6.3 6.1 4.7 3.1
6.5 6.5 6.5 6.5 6.5 6.3 6.5 6.5 6.5 6.5 6.5 6.5 6.5 6.5 6.5 6.5 6.5 5.6 3.8 4.2 2.4 4.1 5.5 6.7 7.3 7.5 7.5 8.2 8.2 8.2 8.3 8.4 8.7 8.7 8.4 8.2 8.4 8.2 8.0 7.8 7.3 6.7 6.4 4.5
6.5 6.5 6.5 6.5 6.4 6.3 6.5 6.5 6.5 6.5 6.5 6.5 6.5 6.5 6.5 6.5 6.5 6.5 6.0 3.6 2.0 4.8 5.9 6.9 7.4 7.5 8.1 8.3 8.3 8.4 8.5 8.4 8.6 8.8 8.9 8.8 8.7 8.5 8.6 8.4 7.8 7.3 6.9 5.9
6.5 6.5 6.5 6.5 6.5 6.5 6.5 6.5 6.5 6.5 6.5 6.5 6.5 6.5 6.5 6.5 6.5 6.5 5.2 1.1 1.8 2.9 5.9 6.8 6.9 7.7 8.1 8.3 8.4 8.3 8.0 8.2 8.5 8.9 8.7 8.5 8.6 8.3 8.6 8.7 8.6 8.0 7.7 7.0
6.1 6.5 6.5 6.5 6.5 5.1 6.5 6.5 6.5 6.5 6.5 6.5 6.5 6.5 6.5 6.5 5.9 0.0 1.9 0.7 1.7 3.2 6.2 6.3 7.0 7.6 8.0 8.3 8.3 8.4 8.4 8.4 8.6 8.5 8.7 8.6 8.8 8.6 8.6 8.4 8.5 8.3 8.4 7.4
6.1 6.5 6.5 6.5 6.5 6.5 6.5 6.5 6.5 6.5 6.5 6.5 6.5 6.5 6.5 3.6 4.2 0.8 1.8 1.6 3.1 4.9 5.5 6.1 7.1 7.7 7.8 8.0 7.6 7.8 8.4 8.3 8.7 8.7 8.5 8.7 8.5 8.4 8.5 8.6 8.7 8.7 8.6 8.0
6.3 6.5 6.5 6.5 6.5 6.5 6.5 6.5 6.5 6.5 6.5 6.5 6.5 6.5 6.5 6.5 6.5 6.0 5.7 4.0 4.4 5.5 5.1 6.3 6.9 7.6 7.9 7.9 7.5 8.1 8.1 8.4 8.3 8.5 8.3 8.1 7.9 8.1 8.3 8.5 8.5 8.4 8.3 8.1
5.0 6.5 6.5 6.5 6.5 6.5 6.5 6.5 6.5 6.5 6.5 6.5 6.5 6.5 6.5 6.5 6.5 5.9 4.5 4.7 5.3 5.9 5.9 6.5 6.9 7.6 7.7 7.7 7.8 8.0 7.9 8.1 7.7 7.8 8.1 7.7 7.8 7.8 8.2 8.4 8.3 8.6 8.6 8.4
5.9 6.5 6.5 6.5 6.5 6.5 6.5 6.5 6.5 6.5 6.5 6.5 6.5 6.5 6.5 5.9 0.7 3.6 5.0 5.6 6.0 5.4 6.0 6.7 7.0 7.5 7.4 7.7 7.8 7.9 7.8 7.8 7.9 7.1 7.0 7.6 8.1 7.9 8.2 8.2 8.1 8.6 8.5 8.4
6.5 6.5 6.5 6.5 6.5 6.5 6.5 6.5 6.5 6.5 6.5 6.5 6.5 6.5 6.6 6.6 5.7 5.0 5.7 5.7 4.6 5.2 6.0 6.4 6.8 7.1 7.3 7.7 7.5 7.1 7.3 6.9 6.7 6.7 6.2 7.2 7.5 7.8 8.1 8.2 8.2 8.5 8.2 8.1
6.5 6.5 6.5 6.5 6.5 6.5 6.5 6.5 6.5 6.5 6.5 6.5 6.5 6.5 6.2 4.7 1.4 1.7 3.4 2.6 4.1 5.3 4.5 5.6 6.8 6.8 6.9 6.9 6.9 7.2 6.9 5.9 5.8 6.1 6.2 5.9 6.7 7.8 8.0 7.9 8.2 8.4 8.3 8.2
5.9 6.5 6.5 6.5 6.5 6.5 6.5 6.5 6.5 6.5 6.5 6.5 6.5 6.5 4.3 -1.0 0.9 1.0 -0.4 -1.1 3.4 3.5 4.3 5.7 6.7 6.3 6.4 6.9 6.8 6.7 6.7 6.6 6.8 6.2 6.2 5.4 6.4 7.5 7.8 7.8 8.1 8.4 8.2 8.3
6.5 6.5 6.5 6.5 6.5 6.5 6.5 6.5 4.3 4.5 6.5 6.2 3.9 5.8 4.0 0.1 6.5 6.5 0.8 3.2 2.4 3.0 3.5 4.4 5.5 5.8 6.5 6.6 6.7 7.1 6.9 6.2 6.0 7.0 6.4 6.4 7.0 7.8 7.7 8.0 8.1 8.5 8.4 8.5
6.5 6.5 6.5 6.5 6.5 6.5 6.5 6.0 4.3 6.5 6.5 1.7 -0.1 0.8 -3.1 6.4 2.9 4.1 2.5 2.2 2.4 2.6 2.8 4.1 4.8 6.0 5.9 6.3 6.6 6.9 6.1 5.2 5.2 6.9 7.1 6.9 7.5 7.8 8.1 8.2 8.4 8.5 8.4 8.7
6.5 6.5 6.5 6.5 6.5 6.5 5.0 6.2 6.5 4.8 2.6 -0.6 -2.6 -2.8 -1.1 -0.1 0.9 1.6 2.5 2.1 2.3 1.5 2.0 2.0 4.2 5.0 5.3 6.1 6.7 6.4 5.7 5.2 7.0 8.2 8.1 8.1 7.9 8.6 8.9 8.4 8.5 8.4 8.4 8.1
6.5 6.5 6.5 6.5 6.5 5.9 4.4 4.1 0.3 0.2 1.1 -0.1 -3.1 -0.6 -1.8 0.9 1.2 2.9 3.0 2.7 2.1 1.5 1.9 2.2 4.4 4.7 4.9 5.4 6.3 6.5 5.5 4.6 6.7 7.4 8.1 7.8 8.2 8.8 8.7 8.1 8.1 7.9 8.2 7.7
6.5 3.5 6.5 6.5 6.5 6.2 5.9 3.2 1.5 1.1 0.5 0.5 -0.6 -1.1 -0.5 0.7 2.1 2.6 3.2 2.7 1.7 1.0 1.9 3.0 3.3 4.3 4.6 4.9 5.6 6.5 5.3 4.2 5.5 6.4 6.6 7.7 7.0 7.7 8.2 8.2 8.1 7.7 7.5 7.5
5.2 6.1 6.5 6.5 6.4 5.9 3.6 3.7 3.9 1.2 1.2 1.2 0.4 0.4 0.4 0.6 1.5 1.9 2.5 2.1 1.4 1.0 2.4 2.2 2.8 3.8 4.4 4.7 5.3 6.4 4.9 3.9 4.2 5.7 5.5 6.4 7.5 7.9 6.9 6.7 7.3 7.6 7.1 7.2
4.7 6.5 6.5 6.5 5.7 4.9 5.0 1.1 -1.1 -0.3 0.7 0.6 0.3 0.1 0.8 0.3 0.8 1.6 1.3 1.8 1.4 3.0 1.1 1.9 1.9 2.7 3.4 4.9 5.0 6.3 4.2 4.1 3.5 4.2 5.8 6.2 6.4 6.1 6.1 5.5 5.4 7.6 7.3 7.7
Wind_Speed
6 9 5 4 1 2 6 4 6 5 4 12 3 13 18 13 5 7 7 7 7 6 1 3 3 6 6 5 6 6 6 7 5 7 7 7 6 7 4 9 12 12 12 13
6 3 3 5 3 6 4 1 5 12 1 8 8 20 7 4 3 3 5 7 6 2 3 5 6 6 6 7 7 6 7 7 6 5 7 5 5 7 6 9 10 12 12 12
5 1 5 1 2 10 2 2 2 5 10 0 10 6 6 4 4 2 1 2 3 5 6 7 7 8 7 7 8 8 8 8 7 8 7 6 5 5 4 4 5 5 12 12
4 2 4 2 2 4 4 2 8 9 4 2 6 5 6 5 7 3 3 5 6 6 6 7 9 9 8 9 7 8 9 10 9 9 8 10 9 9 8 7 7 7 11 13
1 5 4 2 1 2 8 11 6 1 3 4 6 3 8 4 5 7 9 9 7 7 8 10 10 12 10 9 9 10 11 10 10 9 9 9 11 8 7 7 8 9 7 10
1 1 2 3 3 2 12 3 2 3 2 3 5 4 7 4 5 4 4 7 8 8 9 9 11 10 11 11 11 9 10 11 9 10 10 11 13 12 9 9 8 8 7 6
6 1 1 3 5 3 6 5 5 7 5 5 3 2 12 7 7 6 10 9 8 8 9 10 15 16 16 17 15 13 13 13 13 13 12 13 14 14 13 12 9 10 8 8
4 6 4 4 4 4 5 4 4 5 3 6 4 6 7 6 6 8 7 8 7 9 10 15 18 18 18 18 16 15 15 16 14 15 15 13 14 10 10 11 10 9 8 8
2 5 1 4 2 3 1 5 2 5 1 2 4 9 11 6 10 10 11 6 10 11 17 19 20 19 19 18 18 17 17 17 17 16 14 15 14 15 13 14 12 9 10 10
2 6 1 2 2 4 4 4 3 3 4 7 6 6 8 7 8 8 9 10 10 17 18 20 19 19 19 19 18 17 16 17 17 16 15 14 15 16 14 13 15 14 11 12
4 2 3 3 4 7 2 2 5 4 3 4 4 9 8 11 9 9 10 8 13 18 21 21 20 20 21 19 17 17 16 17 17 16 16 16 14 17 15 14 14 14 13 12
3 4 5 6 1 3 3 6 5 4 5 2 3 10 5 10 9 4 11 12 14 14 20 21 21 22 20 19 18 18 18 18 16 16 16 16 15 16 15 15 16 15 14 12
5 1 6 3 3 4 2 3 3 4 3 8 6 8 3 4 6 9 11 10 11 19 21 20 20 20 20 19 16 17 18 17 16 15 16 16 16 16 16 15 16 14 13 13
6 3 6 7 8 4 2 4 5 5 4 4 10 16 26 19 16 21 18 11 16 19 21 20 20 21 20 18 17 18 18 17 17 15 16 17 16 15 15 15 16 16 15 15
4 5 5 11 20 13 19 14 11 14 10 8 6 8 21 24 22 22 19 16 22 22 21 22 22 21 21 19 18 18 18 18 17 16 16 15 16 14 14 15 16 15 15 14
1 4 1 7 6 5 9 17 16 20 19 17 29 34 27 26 9 11 17 20 22 22 26 25 24 24 21 21 20 20 19 18 16 16 17 16 15 15 15 15 16 15 15 15
5 2 3 6 4 13 6 9 13 5 7 7 7 16 2 9 10 14 20 21 20 22 26 26 25 23 21 22 22 21 20 19 18 17 17 16 15 16 16 15 16 17 16 14
5 3 3 5 8 4 6 2 5 13 9 18 16 18 16 10 11 12 19 16 19 22 26 24 22 23 23 23 22 21 21 20 18 18 17 17 15 16 15 16 16 16 14 15
3 2 3 4 2 12 7 4 6 7 9 8 13 18 11 6 9 10 5 5 18 21 19 20 21 23 23 22 22 22 20 19 17 16 13 12 15 15 15 16 16 15 13 13
4 1 1 1 3 6 5 4 5 5 5 7 8 10 6 5 8 6 6 19 19 19 18 21 24 23 20 22 22 20 19 17 15 9 6 10 12 13 14 14 14 13 11 12
2 2 8 7 6 11 10 7 6 4 8 5 7 9 5 3 6 13 15 17 18 19 22 22 23 20 21 21 21 21 20 21 12 2 1 6 9 11 11 12 11 12 12 12
9 8 6 4 4 10 7 5 6 4 3 5 5 5 7 8 10 10 13 17 21 23 24 24 21 22 22 20 19 20 19 18 9 1 2 5 8 9 9 12 11 12 13 12
3 7 5 12 9 1 13 8 5 5 5 5 4 4 6 7 6 11 9 15 18 20 17 19 19 21 22 21 20 19 20 17 8 4 2 5 7 8 9 10 11 9 12 10
5 4 4 3 11 23 18 13 12 8 7 5 4 4 4 6 7 10 10 12 14 17 16 17 20 21 22 22 22 18 19 17 11 5 4 4 6 7 9 8 8 9 9 9
4 8 5 9 25 21 22 18 14 6 6 5 4 4 5 4 7 6 10 11 13 15 14 16 17 18 21 22 22 19 19 17 13 5 3 3 4 7 6 9 8 8 8 9
7 8 7 12 17 11 9 2 6 9 6 6 5 2 2 4 6 5 9 10 11 14 13 14 18 19 22 21 21 20 20 17 14 9 2 2 3 5 5 4 3 12 9 13
Wind_Direction
11 55 24 338 334 238 248 229 259 259 313 343 328 299 300 307 312 266 262 228 226 241 71 32 326 301 311 307 308 296 293 288 301 310 307 310 304 302 279 284 285 299 303 286
24 57 312 298 160 316 248 215 305 293 259 337 312 304 289 319 314 264 244 210 221 218 312 299 301 292 284 277 278 271 271 278 289 285 284 279 286 291 277 278 278 285 298 318
98 227 307 358 30 349 307 169 285 255 322 329 309 301 330 297 348 15 31 144 173 214 267 285 285 275 272 279 278 284 263 264 272 272 282 284 274 283 284 277 278 258 286 291
77 327 354 338 38 28 315 146 331 300 34 304 6 285 300 294 301 232 236 214 224 250 274 273 282 289 285 275 262 259 260 261 267 274 278 275 277 282 281 276 276 277 273 280
326 9 347 344 25 140 251 340 299 208 98 58 344 59 268 294 273 245 234 234 238 263 269 276 277 293 285 279 264 263 262 256 255 256 256 266 272 271 276 270 270 275 268 260
65 67 33 293 308 246 294 3 96 64 98 30 252 93 282 242 214 260 248 247 241 266 278 280 297 291 288 290 275 255 256 265 255 250 251 253 262 269 270 268 269 272 273 262
339 63 32 16 343 346 359 24 346 359 7 246 194 35 248 258 245 240 261 259 247 268 289 284 298 303 302 303 296 291 285 280 275 272 267 261 260 260 262 262 264 264 266 265
39 325 28 356 124 196 17 104 130 269 289 294 8 233 257 223 259 248 253 248 269 275 267 298 307 306 303 299 295 291 285 280 272 270 265 264 260 257 256 252 256 254 252 260
36 267 99 41 117 117 295 53 189 93 98 29 258 288 289 263 266 248 255 270 272 304 306 306 306 305 302 300 298 296 287 279 275 265 265 261 264 255 253 250 252 247 249 254
195 314 80 154 116 51 114 146 50 21 350 304 285 281 243 288 264 254 259 259 286 302 301 308 307 303 302 299 297 291 287 283 279 272 267 262 261 257 253 249 249 245 243 244
130 94 283 60 191 181 75 37 48 113 129 195 297 277 220 234 245 243 261 273 284 290 306 308 306 304 302 300 297 295 285 278 277 275 268 262 256 255 250 246 242 240 239 234
195 149 270 232 285 165 130 180 151 131 250 227 153 268 237 235 254 215 268 270 274 278 302 305 304 304 303 302 300 299 289 282 279 275 268 262 255 252 246 243 243 241 234 234
184 291 312 322 359 352 191 204 132 109 77 206 149 261 275 283 281 261 266 277 292 304 305 305 305 307 306 309 301 293 290 286 282 274 269 264 253 246 242 239 239 232 225 233
146 161 203 219 251 120 213 202 208 140 150 196 227 283 299 301 306 311 310 302 300 309 305 303 307 309 310 308 300 295 295 290 284 274 266 260 251 244 237 231 231 231 229 225
131 228 209 257 265 264 266 244 193 204 204 200 281 232 272 290 300 304 308 307 316 307 307 310 312 312 314 311 302 300 293 291 285 277 268 256 250 238 230 226 226 224 222 219
139 273 11 278 259 222 258 242 225 224 245 255 260 273 276 276 304 296 304 313 309 307 308 312 314 315 318 313 309 305 299 294 287 275 266 257 246 236 225 221 221 219 218 216
170 238 1 262 324 300 281 225 188 190 212 179 200 252 70 298 302 307 310 310 302 306 310 315 316 317 318 314 311 306 302 296 286 275 263 247 231 230 219 212 215 214 212 210
157 175 176 281 319 352 258 212 163 200 242 211 266 277 279 261 278 296 293 293 300 310 311 314 315 316 316 314 309 306 302 297 286 274 260 234 218 217 209 205 209 210 208 206
190 129 275 303 245 286 274 202 168 168 271 225 224 259 272 289 331 280 245 249 301 302 302 307 311 312 314 313 314 308 305 301 296 287 275 200 201 205 198 200 202 204 201 202
131 108 235 108 251 267 245 141 134 122 284 191 187 246 250 9 321 301 311 319 308 305 309 315 317 316 315 318 315 312 311 312 305 296 240 190 191 194 192 192 195 199 195 205
155 167 221 229 260 276 255 151 164 70 300 193 183 229 184 212 216 294 316 309 308 309 315 319 320 317 320 320 320 323 328 330 309 328 219 180 183 183 188 187 189 190 193 202
169 170 201 179 241 283 138 133 176 221 203 178 204 213 222 238 276 289 299 301 313 318 325 328 324 323 323 327 329 327 335 332 328 321 202 189 176 187 184 185 184 188 196 194
259 200 193 194 221 60 190 246 208 172 190 212 177 209 210 254 269 295 292 304 310 312 316 319 324 321 326 331 337 329 334 331 319 2 256 209 187 192 180 185 188 189 194 186
260 164 231 19 236 251 265 250 234 195 203 189 190 190 189 246 277 292 301 308 312 311 321 324 325 328 328 333 336 331 335 334 326 293 224 202 194 200 185 192 193 195 183 183
198 145 203 257 278 274 261 254 247 185 163 162 157 198 231 233 281 280 303 310 308 305 319 325 325 329 327 330 335 336 340 339 336 317 280 182 198 206 190 204 189 194 198 193
186 197 208 247 260 235 271 185 148 164 181 176 167 211 251 227 262 292 302 306 303 306 319 326 329 329 328 331 335 340 342 343 339 337 292 253 189 218 197 157 180 197 196 218